| time (UTC) | temp C | wind direction | speed KPH | gust KPH | rain 1hr cm | rain 24hr cm | rain mn cm | humidity % | barometer mb |
| 20260503204545 | 27 | 178 | 6.4 | 20.9 | 0.00 | 0.00 | 0.00 | 32 | 1010.0 |
| 20260503204021 | 28 | 335 | 9.7 | 20.9 | 0.00 | 0.00 | 0.00 | 31 | 1010.0 |
| 20260503203523 | 28 | 290 | 4.8 | 19.3 | 0.00 | 0.00 | 0.00 | 31 | 1010.1 |
| 20260503203052 | 28 | 301 | 8.0 | 17.7 | 0.00 | 0.00 | 0.00 | 31 | 1010.1 |
| 20260503202522 | 28 | 290 | 3.2 | 14.5 | 0.00 | 0.00 | 0.00 | 32 | 1010.2 |
| 20260503202028 | 27 | 46 | 3.2 | 17.7 | 0.00 | 0.00 | 0.00 | 33 | 1010.3 |
| 20260503201537 | 28 | 184 | 6.4 | 17.7 | 0.00 | 0.00 | 0.00 | 31 | 1010.4 |
| 20260503201023 | 28 | 0 | 0.0 | 17.7 | 0.00 | 0.00 | 0.00 | 33 | 1010.4 |
| 20260503200523 | 27 | 0 | 3.2 | 19.3 | 0.00 | 0.00 | 0.00 | 33 | 1010.4 |
| 20260503200039 | 27 | 300 | 4.8 | 20.9 | 0.00 | 0.00 | 0.00 | 36 | 1010.6 |
| 20260503195524 | 27 | 0 | 9.7 | 20.9 | 0.00 | 0.00 | 0.00 | 33 | 1010.6 |
| 20260503195027 | 27 | 277 | 3.2 | 14.5 | 0.00 | 0.00 | 0.00 | 36 | 1010.7 |
| 20260503194552 | 27 | 267 | 3.2 | 17.7 | 0.00 | 0.00 | 0.00 | 35 | 1010.7 |
| 20260503194023 | 27 | 140 | 3.2 | 17.7 | 0.00 | 0.00 | 0.00 | 35 | 1010.8 |
| 20260503193527 | 26 | 311 | 9.7 | 17.7 | 0.00 | 0.00 | 0.00 | 36 | 1010.8 |
| 20260503193045 | 27 | 192 | 3.2 | 17.7 | 0.00 | 0.00 | 0.00 | 35 | 1010.8 |
| 20260503192524 | 26 | 296 | 1.6 | 17.7 | 0.00 | 0.00 | 0.00 | 36 | 1010.9 |
| 20260503192023 | 27 | 274 | 3.2 | 17.7 | 0.00 | 0.00 | 0.00 | 36 | 1011.0 |
| 20260503191538 | 26 | 297 | 6.4 | 17.7 | 0.00 | 0.00 | 0.00 | 35 | 1011.0 |
| 20260503191023 | 26 | 311 | 6.4 | 14.5 | 0.00 | 0.00 | 0.00 | 37 | 1011.2 |
| 20260503190523 | 26 | 310 | 4.8 | 16.1 | 0.00 | 0.00 | 0.00 | 37 | 1011.3 |
| 20260503190039 | 26 | 254 | 4.8 | 17.7 | 0.00 | 0.00 | 0.00 | 36 | 1011.4 |
| 20260503185523 | 26 | 281 | 1.6 | 17.7 | 0.00 | 0.00 | 0.00 | 35 | 1011.5 |
| 20260503185024 | 26 | 304 | 4.8 | 17.7 | 0.00 | 0.00 | 0.00 | 37 | 1011.6 |
| 20260503184539 | 26 | 233 | 4.8 | 17.7 | 0.00 | 0.00 | 0.00 | 37 | 1011.6 |
| 20260503184024 | 25 | 247 | 8.0 | 17.7 | 0.00 | 0.00 | 0.00 | 37 | 1011.7 |
| 20260503183522 | 25 | 282 | 4.8 | 16.1 | 0.00 | 0.00 | 0.00 | 38 | 1011.7 |
| 20260503183042 | 25 | 288 | 3.2 | 14.5 | 0.00 | 0.00 | 0.00 | 38 | 1011.7 |
| 20260503182523 | 25 | 294 | 3.2 | 19.3 | 0.00 | 0.00 | 0.00 | 40 | 1011.9 |
| 20260503182024 | 25 | 295 | 4.8 | 22.5 | 0.00 | 0.00 | 0.00 | 39 | 1012.0 |
| 20260503181539 | 25 | 296 | 9.7 | 22.5 | 0.00 | 0.00 | 0.00 | 38 | 1012.1 |
| 20260503181024 | 25 | 259 | 6.4 | 17.7 | 0.00 | 0.00 | 0.00 | 39 | 1012.1 |
| 20260503180524 | 25 | 287 | 3.2 | 11.3 | 0.00 | 0.00 | 0.00 | 39 | 1012.1 |
| 20260503180041 | 25 | 67 | 1.6 | 14.5 | 0.00 | 0.00 | 0.00 | 42 | 1012.2 |
| 20260503175523 | 25 | 121 | 3.2 | 16.1 | 0.00 | 0.00 | 0.00 | 43 | 1012.2 |
| 20260503175024 | 25 | 212 | 4.8 | 16.1 | 0.00 | 0.00 | 0.00 | 44 | 1012.2 |
| 20260503174537 | 24 | 263 | 3.2 | 19.3 | 0.00 | 0.00 | 0.00 | 45 | 1012.3 |
| 20260503174027 | 24 | 343 | 3.2 | 20.9 | 0.00 | 0.00 | 0.00 | 45 | 1012.3 |
| 20260503173523 | 23 | 321 | 4.8 | 24.1 | 0.00 | 0.00 | 0.00 | 46 | 1012.5 |
| 20260503173044 | 23 | 137 | 4.8 | 24.1 | 0.00 | 0.00 | 0.00 | 46 | 1012.5 |
| 20260503172522 | 23 | 175 | 3.2 | 16.1 | 0.00 | 0.00 | 0.00 | 45 | 1012.6 |
| 20260503172023 | 23 | 175 | 3.2 | 14.5 | 0.00 | 0.00 | 0.00 | 46 | 1012.7 |
| 20260503171547 | 23 | 13 | 4.8 | 16.1 | 0.00 | 0.00 | 0.00 | 46 | 1012.9 |
| 20260503171026 | 22 | 167 | 4.8 | 20.9 | 0.00 | 0.00 | 0.00 | 46 | 1013.0 |
| 20260503170524 | 22 | 202 | 3.2 | 20.9 | 0.00 | 0.00 | 0.00 | 47 | 1013.0 |
| 20260503150523 | 18 | 295 | 8.0 | 22.5 | 0.00 | 0.00 | 0.00 | 52 | 1013.5 |
| 20260503131028 | 12 | 120 | 3.2 | 17.7 | 0.00 | 0.00 | 0.00 | 61 | 1014.5 |
| 20260503130527 | 12 | 238 | 1.6 | 17.7 | 0.00 | 0.00 | 0.00 | 62 | 1014.6 |
| 20260503110524 | 10 | 135 | 4.8 | 20.9 | 0.00 | 0.00 | 0.00 | 54 | 1014.7 |
| 20260503081537 | 10 | 169 | 3.2 | 14.5 | 0.00 | 0.00 | 0.00 | 56 | 1016.1 |
| 20260503081029 | 10 | 206 | 3.2 | 14.5 | 0.00 | 0.00 | 0.00 | 55 | 1016.1 |
| 20260503080524 | 10 | 167 | 3.2 | 14.5 | 0.00 | 0.00 | 0.00 | 56 | 1016.1 |
| 20260503072525 | 10 | 0 | 0.0 | 12.9 | 0.00 | 0.00 | 0.00 | 58 | 1016.4 |
| 20260503072025 | 10 | 196 | 0.0 | 11.3 | 0.00 | 0.00 | 0.00 | 57 | 1016.5 |
| 20260503071551 | 10 | 0 | 1.6 | 9.7 | 0.00 | 0.00 | 0.00 | 57 | 1016.4 |
| 20260503071025 | 10 | 0 | 1.6 | 9.7 | 0.00 | 0.00 | 0.00 | 58 | 1016.5 |
| 20260503070527 | 10 | 0 | 1.6 | 9.7 | 0.00 | 0.00 | 0.00 | 58 | 1016.5 |
| 20260503055024 | 9 | 0 | 0.0 | 8.0 | 0.00 | 0.00 | 0.00 | 61 | 1017.5 |
| 20260503054549 | 9 | 0 | 0.0 | 8.0 | 0.00 | 0.00 | 0.00 | 61 | 1017.5 |
| 20260503054024 | 9 | 184 | 0.0 | 4.8 | 0.00 | 0.00 | 0.00 | 61 | 1017.6 |
| 20260503053523 | 9 | 161 | 0.0 | 3.2 | 0.00 | 0.00 | 0.00 | 60 | 1017.6 |
| 20260503053037 | 9 | 0 | 0.0 | 3.2 | 0.00 | 0.00 | 0.00 | 61 | 1017.7 |
| 20260503052523 | 9 | 0 | 0.0 | 3.2 | 0.00 | 0.00 | 0.00 | 61 | 1017.7 |
| 20260503052026 | 9 | 0 | 0.0 | 0.0 | 0.00 | 0.00 | 0.00 | 61 | 1017.7 |
| 20260503051537 | 9 | 0 | 0.0 | 0.0 | 0.00 | 0.00 | 0.00 | 61 | 1017.8 |
| 20260503051023 | 9 | 0 | 0.0 | 0.0 | 0.00 | 0.00 | 0.00 | 61 | 1017.8 |
| 20260503050524 | 8 | 0 | 0.0 | 0.0 | 0.00 | 0.00 | 0.00 | 61 | 1017.9 |
| 20260503050040 | 8 | 0 | 0.0 | 0.0 | 0.00 | 0.00 | 0.00 | 61 | 1018.0 |
| 20260503045524 | 9 | 0 | 0.0 | 0.0 | 0.00 | 0.00 | 0.00 | 62 | 1017.9 |
| 20260503045029 | 9 | 0 | 0.0 | 0.0 | 0.00 | 0.00 | 0.00 | 61 | 1018.0 |
| 20260503044537 | 9 | 0 | 0.0 | 0.0 | 0.00 | 0.00 | 0.00 | 61 | 1018.1 |
| 20260503044024 | 9 | 0 | 0.0 | 0.0 | 0.00 | 0.00 | 0.00 | 60 | 1018.2 |
| 20260503043528 | 9 | 0 | 0.0 | 0.0 | 0.00 | 0.00 | 0.00 | 60 | 1018.1 |
| 20260503043034 | 9 | 0 | 0.0 | 0.0 | 0.00 | 0.00 | 0.00 | 60 | 1018.1 |
| 20260503042525 | 10 | 0 | 0.0 | 0.0 | 0.00 | 0.00 | 0.00 | 60 | 1018.2 |
| 20260503042025 | 10 | 0 | 0.0 | 0.0 | 0.00 | 0.00 | 0.00 | 60 | 1018.2 |
| 20260503041543 | 10 | 0 | 0.0 | 0.0 | 0.00 | 0.00 | 0.00 | 59 | 1018.3 |
| 20260503041026 | 10 | 0 | 0.0 | 0.0 | 0.00 | 0.00 | 0.00 | 59 | 1018.2 |
| 20260503040524 | 10 | 0 | 0.0 | 0.0 | 0.00 | 0.00 | 0.00 | 58 | 1018.3 |
| 20260503040049 | 10 | 0 | 0.0 | 0.0 | 0.00 | 0.00 | 0.00 | 58 | 1018.3 |
| 20260503035525 | 10 | 0 | 0.0 | 0.0 | 0.00 | 0.00 | 0.00 | 59 | 1018.3 |
| 20260503035025 | 10 | 0 | 0.0 | 0.0 | 0.00 | 0.00 | 0.00 | 58 | 1018.3 |
| 20260503034535 | 10 | 0 | 0.0 | 0.0 | 0.00 | 0.00 | 0.00 | 58 | 1018.4 |
| 20260503034025 | 10 | 0 | 0.0 | 0.0 | 0.00 | 0.00 | 0.00 | 58 | 1018.4 |
| 20260503033524 | 10 | 0 | 0.0 | 0.0 | 0.00 | 0.00 | 0.00 | 57 | 1018.5 |
| 20260503033038 | 10 | 0 | 0.0 | 0.0 | 0.00 | 0.00 | 0.00 | 57 | 1018.6 |
| 20260503032527 | 10 | 0 | 0.0 | 0.0 | 0.00 | 0.00 | 0.00 | 57 | 1018.6 |
| 20260503032024 | 10 | 0 | 0.0 | 0.0 | 0.00 | 0.00 | 0.00 | 57 | 1018.7 |
| 20260503031536 | 11 | 0 | 0.0 | 0.0 | 0.00 | 0.00 | 0.00 | 56 | 1018.7 |
| 20260503031025 | 11 | 0 | 0.0 | 0.0 | 0.00 | 0.00 | 0.00 | 55 | 1018.8 |
| 20260503030524 | 11 | 0 | 0.0 | 0.0 | 0.00 | 0.00 | 0.00 | 55 | 1018.7 |
| 20260503030048 | 11 | 0 | 0.0 | 0.0 | 0.00 | 0.00 | 0.00 | 55 | 1018.8 |
| 20260503025522 | 11 | 0 | 0.0 | 0.0 | 0.00 | 0.00 | 0.00 | 54 | 1018.7 |
| 20260503025024 | 11 | 0 | 0.0 | 0.0 | 0.00 | 0.00 | 0.00 | 53 | 1018.8 |
| 20260503024537 | 11 | 0 | 0.0 | 0.0 | 0.00 | 0.00 | 0.00 | 53 | 1018.8 |
| 20260503024026 | 11 | 0 | 0.0 | 0.0 | 0.00 | 0.00 | 0.00 | 53 | 1018.7 |
| 20260503023521 | 11 | 0 | 0.0 | 0.0 | 0.00 | 0.00 | 0.00 | 53 | 1018.8 |
| 20260503023036 | 11 | 0 | 0.0 | 0.0 | 0.00 | 0.00 | 0.00 | 52 | 1018.8 |
| 20260503022523 | 11 | 0 | 0.0 | 0.0 | 0.00 | 0.00 | 0.00 | 51 | 1018.7 |
| 20260503022022 | 12 | 0 | 0.0 | 0.0 | 0.00 | 0.00 | 0.00 | 50 | 1018.7 |
| 20260503021536 | 12 | 0 | 0.0 | 0.0 | 0.00 | 0.00 | 0.00 | 49 | 1018.8 |
| 20260503021021 | 12 | 0 | 0.0 | 0.0 | 0.00 | 0.00 | 0.00 | 48 | 1018.8 |
| 20260503020522 | 12 | 0 | 0.0 | 0.0 | 0.00 | 0.00 | 0.00 | 47 | 1018.8 |
| 20260503020037 | 12 | 0 | 0.0 | 0.0 | 0.00 | 0.00 | 0.00 | 46 | 1018.8 |
| 20260503015527 | 12 | 0 | 0.0 | 0.0 | 0.00 | 0.00 | 0.00 | 44 | 1018.8 |
| 20260503015025 | 12 | 0 | 0.0 | 0.0 | 0.00 | 0.00 | 0.00 | 45 | 1018.7 |
| 20260503014556 | 13 | 0 | 0.0 | 0.0 | 0.00 | 0.00 | 0.00 | 45 | 1018.7 |
| 20260503014021 | 13 | 0 | 0.0 | 0.0 | 0.00 | 0.00 | 0.00 | 44 | 1018.7 |
| 20260503013523 | 13 | 0 | 0.0 | 0.0 | 0.00 | 0.00 | 0.00 | 43 | 1018.7 |
| 20260503013038 | 14 | 0 | 0.0 | 0.0 | 0.00 | 0.00 | 0.00 | 43 | 1018.7 |
| 20260503012524 | 14 | 0 | 0.0 | 0.0 | 0.00 | 0.00 | 0.00 | 42 | 1018.7 |
| 20260503012021 | 15 | 0 | 0.0 | 0.0 | 0.00 | 0.00 | 0.00 | 41 | 1018.6 |
| 20260503011535 | 15 | 0 | 0.0 | 0.0 | 0.00 | 0.00 | 0.00 | 40 | 1018.6 |
| 20260503011021 | 15 | 0 | 0.0 | 0.0 | 0.00 | 0.00 | 0.00 | 38 | 1018.7 |
| 20260503010523 | 16 | 0 | 0.0 | 0.0 | 0.00 | 0.00 | 0.00 | 37 | 1018.7 |
| 20260503010037 | 16 | 0 | 0.0 | 0.0 | 0.00 | 0.00 | 0.00 | 36 | 1018.6 |
| 20260503005521 | 16 | 0 | 0.0 | 0.0 | 0.00 | 0.00 | 0.00 | 35 | 1018.6 |
| 20260503005024 | 16 | 0 | 0.0 | 1.6 | 0.00 | 0.00 | 0.00 | 34 | 1018.7 |
| 20260503004537 | 17 | 0 | 0.0 | 8.0 | 0.00 | 0.00 | 0.00 | 33 | 1018.7 |
| 20260503004022 | 17 | 0 | 0.0 | 8.0 | 0.00 | 0.00 | 0.00 | 33 | 1018.8 |
| 20260503003524 | 17 | 165 | 0.0 | 6.4 | 0.00 | 0.00 | 0.00 | 32 | 1018.8 |
| 20260503003034 | 17 | 0 | 0.0 | 8.0 | 0.00 | 0.00 | 0.00 | 32 | 1018.7 |
| 20260503002525 | 17 | 0 | 0.0 | 9.7 | 0.00 | 0.00 | 0.00 | 31 | 1018.7 |
| 20260503002021 | 17 | 0 | 0.0 | 9.7 | 0.00 | 0.00 | 0.00 | 31 | 1018.7 |
| 20260503001552 | 17 | 0 | 0.0 | 6.4 | 0.00 | 0.00 | 0.00 | 31 | 1018.8 |
| 20260503001022 | 17 | 300 | 1.6 | 8.0 | 0.00 | 0.00 | 0.00 | 30 | 1018.8 |
| 20260503000523 | 18 | 290 | 0.0 | 8.0 | 0.00 | 0.00 | 0.00 | 30 | 1018.8 |
| 20260503000038 | 18 | 306 | 1.6 | 8.0 | 0.00 | 0.00 | 0.00 | 30 | 1018.9 |
| 20260502235521 | 18 | 0 | 0.0 | 11.3 | 0.00 | 0.00 | 0.00 | 31 | 1018.9 |
| 20260502235023 | 17 | 0 | 0.0 | 11.3 | 0.00 | 0.00 | 0.00 | 31 | 1018.9 |
| 20260502234541 | 17 | 0 | 1.6 | 11.3 | 0.00 | 0.00 | 0.00 | 31 | 1019.0 |
| 20260502234024 | 17 | 0 | 1.6 | 4.8 | 0.00 | 0.00 | 0.00 | 31 | 1019.0 |
| 20260502233523 | 17 | 0 | 0.0 | 9.7 | 0.00 | 0.00 | 0.00 | 29 | 1018.9 |
| 20260502233034 | 18 | 0 | 0.0 | 9.7 | 0.00 | 0.00 | 0.00 | 30 | 1019.0 |
| 20260502232526 | 18 | 282 | 3.2 | 9.7 | 0.00 | 0.00 | 0.00 | 30 | 1019.0 |
| 20260502232023 | 18 | 0 | 1.6 | 8.0 | 0.00 | 0.00 | 0.00 | 31 | 1019.1 |
| 20260502231536 | 18 | 0 | 0.0 | 4.8 | 0.00 | 0.00 | 0.00 | 30 | 1019.2 |
| 20260502231023 | 18 | 12 | 1.6 | 4.8 | 0.00 | 0.00 | 0.00 | 31 | 1019.2 |
| 20260502230523 | 18 | 40 | 0.0 | 6.4 | 0.00 | 0.00 | 0.00 | 30 | 1019.3 |
| 20260502230041 | 17 | 0 | 0.0 | 6.4 | 0.00 | 0.00 | 0.00 | 33 | 1019.4 |
| 20260502225528 | 17 | 0 | 0.0 | 11.3 | 0.00 | 0.00 | 0.00 | 32 | 1019.3 |
| 20260502225025 | 17 | 0 | 1.6 | 11.3 | 0.00 | 0.00 | 0.00 | 31 | 1019.3 |
| 20260502224537 | 17 | 169 | 4.8 | 11.3 | 0.00 | 0.00 | 0.00 | 31 | 1019.3 |
| 20260502224022 | 18 | 0 | 0.0 | 9.7 | 0.00 | 0.00 | 0.00 | 34 | 1019.3 |
| 20260502223524 | 17 | 0 | 1.6 | 9.7 | 0.00 | 0.00 | 0.00 | 32 | 1019.3 |
| 20260502223042 | 17 | 0 | 3.2 | 12.9 | 0.00 | 0.00 | 0.00 | 32 | 1019.4 |
| 20260502222524 | 18 | 320 | 4.8 | 12.9 | 0.00 | 0.00 | 0.00 | 32 | 1019.4 |
| 20260502222023 | 18 | 286 | 1.6 | 8.0 | 0.00 | 0.00 | 0.00 | 33 | 1019.3 |
| 20260502221540 | 17 | 297 | 0.0 | 14.5 | 0.00 | 0.00 | 0.00 | 33 | 1019.4 |
| 20260502221021 | 17 | 276 | 1.6 | 14.5 | 0.00 | 0.00 | 0.00 | 32 | 1019.5 |
| 20260502220523 | 17 | 269 | 0.0 | 8.0 | 0.00 | 0.00 | 0.00 | 32 | 1019.5 |
| 20260502220035 | 17 | 293 | 1.6 | 8.0 | 0.00 | 0.00 | 0.00 | 33 | 1019.5 |
| 20260502215527 | 17 | 145 | 3.2 | 12.9 | 0.00 | 0.00 | 0.00 | 30 | 1019.6 |
| 20260502215023 | 17 | 0 | 1.6 | 12.9 | 0.00 | 0.00 | 0.00 | 33 | 1019.7 |
| 20260502214539 | 17 | 290 | 3.2 | 12.9 | 0.00 | 0.00 | 0.00 | 33 | 1019.8 |
| 20260502214027 | 17 | 0 | 1.6 | 12.9 | 0.00 | 0.00 | 0.00 | 31 | 1019.8 |
| 20260502213523 | 17 | 327 | 4.8 | 12.9 | 0.00 | 0.00 | 0.00 | 32 | 1019.9 |
| 20260502213036 | 17 | 323 | 1.6 | 6.4 | 0.00 | 0.00 | 0.00 | 32 | 1019.8 |
| 20260502212525 | 17 | 51 | 1.6 | 11.3 | 0.00 | 0.00 | 0.00 | 32 | 1019.9 |
| 20260502212024 | 16 | 0 | 3.2 | 11.3 | 0.00 | 0.00 | 0.00 | 33 | 1019.9 |
| 20260502211536 | 17 | 292 | 3.2 | 11.3 | 0.00 | 0.00 | 0.00 | 33 | 1020.1 |
| 20260502211026 | 17 | 5 | 3.2 | 9.7 | 0.00 | 0.00 | 0.00 | 32 | 1020.2 |
| 20260502210522 | 17 | 355 | 3.2 | 16.1 | 0.00 | 0.00 | 0.00 | 33 | 1020.2 |
| 20260502210038 | 16 | 273 | 3.2 | 16.1 | 0.00 | 0.00 | 0.00 | 33 | 1020.2 |
| 20260502205524 | 16 | 303 | 1.6 | 8.0 | 0.00 | 0.00 | 0.00 | 30 | 1020.3 |
| 20260502205022 | 16 | 13 | 1.6 | 14.5 | 0.00 | 0.00 | 0.00 | 32 | 1020.3 |